Temp
24 23 23 23 24 24 22 22 24 24 23 23 23 23 23 23 23 23 23 22 22 22 22 21 21 21 21 21 21 21 20 19 19 18 18 18 18 18 18 18 18 19 20 20 20 21 21 21 21 21 22 21 21 21 21 20 19 20 21 21 20 19 19
23 23 23 23 24 24 22 22 24 23 23 23 23 23 23 23 23 22 22 22 22 22 21 21 21 21 21 21 21 21 20 19 19 19 19 19 19 19 19 19 20 20 20 21 21 21 21 21 21 21 21 21 21 22 22 20 19 20 21 21 20 20 19
23 23 23 23 24 24 22 22 24 23 23 23 23 23 23 22 23 22 22 22 22 21 21 21 21 21 21 21 21 21 20 19 19 19 20 20 20 19 20 20 20 20 20 20 21 21 21 20 20 21 21 20 20 21 21 21 20 20 21 21 21 21 20
23 23 23 24 24 23 21 22 23 22 22 23 23 23 22 22 22 22 22 22 21 21 21 21 21 21 21 21 20 20 20 20 19 19 19 19 19 19 19 19 19 19 19 20 20 20 19 19 19 19 19 19 19 20 20 21 21 21 21 21 21 22 21
23 23 23 23 24 23 22 21 22 22 22 23 22 22 22 22 22 22 22 22 21 21 21 21 21 21 21 20 20 20 19 19 19 19 19 18 18 18 18 19 19 19 19 19 19 19 19 19 19 19 18 18 18 18 19 20 21 21 21 21 21 21 21
23 23 23 24 24 24 22 21 22 22 22 22 22 22 22 22 22 22 22 22 21 21 21 20 20 21 21 20 20 19 19 19 19 19 18 18 18 18 18 18 19 18 18 18 19 19 19 19 19 18 18 18 17 17 18 19 20 20 21 21 20 21 21
22 23 24 24 24 24 22 21 22 22 22 22 22 22 22 22 21 21 21 21 21 21 20 20 20 21 21 20 20 20 19 19 19 19 19 18 18 18 18 18 18 19 18 18 18 19 19 19 19 18 18 18 17 17 18 18 19 20 20 20 20 20 20
22 23 24 24 24 24 21 20 21 21 22 22 22 22 21 21 21 21 21 21 21 21 20 20 20 20 20 20 20 20 20 19 19 19 19 19 18 18 18 18 18 18 18 18 18 18 18 18 18 18 17 17 17 17 17 18 18 19 19 19 19 20 20
23 23 24 24 24 22 20 20 21 22 22 22 21 21 21 21 21 21 21 21 21 21 20 20 20 20 20 20 20 20 20 19 19 19 19 19 19 19 18 18 18 18 17 17 18 18 18 18 17 17 17 17 17 17 17 18 19 19 19 19 19 19 19
23 23 24 24 24 21 19 20 21 21 22 21 21 21 21 21 21 20 20 20 20 20 20 20 20 20 20 20 20 20 20 19 19 19 19 19 19 19 18 18 18 18 17 17 18 18 18 18 17 17 17 17 17 17 17 18 18 18 19 19 18 19 19
23 23 24 24 24 22 21 20 20 21 22 21 21 21 21 20 20 20 20 20 20 20 19 20 20 20 20 20 20 19 19 19 19 19 19 19 19 19 19 18 18 17 17 17 18 18 18 18 17 17 17 17 17 17 17 17 17 17 18 18 18 18 18
23 23 24 24 23 23 22 20 20 21 21 21 21 21 20 20 20 20 20 20 20 20 19 20 20 20 20 20 20 19 19 19 19 19 18 18 18 19 19 18 18 17 17 17 17 18 17 17 17 17 17 17 17 17 16 16 17 17 17 18 18 18 18
23 24 24 23 23 23 22 21 20 21 21 21 21 20 20 20 20 20 20 20 20 20 19 20 20 20 20 20 20 19 19 19 19 18 18 18 18 18 19 19 18 18 17 17 17 18 17 17 17 17 17 17 17 17 17 17 17 17 17 18 18 18 18
24 24 23 23 23 23 22 22 21 20 21 21 20 20 20 20 20 20 20 20 20 20 20 20 20 20 20 20 20 20 19 19 19 19 18 18 18 19 19 19 19 18 18 18 18 18 18 17 17 17 17 16 16 17 17 17 17 17 17 17 18 18 18
24 24 23 23 23 22 22 22 20 19 20 20 20 20 20 20 20 20 20 20 19 20 20 20 20 20 20 20 20 20 20 19 19 19 19 19 19 19 19 19 19 19 19 18 18 18 18 18 17 17 17 16 16 17 17 17 17 17 17 17 17 17 17
24 23 23 23 22 22 23 22 19 18 20 21 20 20 20 20 20 20 20 20 20 20 20 20 20 20 20 20 20 20 20 20 19 19 19 19 19 19 19 19 19 19 19 19 18 18 18 18 18 17 17 17 16 16 17 17 17 17 17 17 17 17 17
23 23 23 22 22 22 22 21 18 18 20 21 20 20 20 20 20 20 20 20 20 20 20 20 20 20 20 20 20 20 20 20 19 19 19 19 19 19 19 19 19 19 18 19 18 18 18 18 18 17 17 17 17 16 16 16 16 16 16 17 17 17 17
24 23 23 22 22 22 22 22 19 18 20 21 20 20 20 20 20 20 20 21 21 20 20 20 20 20 21 20 20 20 20 20 20 19 19 19 19 19 19 19 19 18 18 18 18 18 18 18 18 17 17 17 17 16 16 16 16 16 17 17 17 17 17
24 23 23 22 22 23 22 20 19 19 20 21 21 21 20 20 20 20 21 21 21 21 20 20 20 21 21 21 20 20 20 20 20 19 19 19 19 19 19 19 19 19 18 18 18 18 18 18 18 17 17 17 17 16 16 16 16 16 16 17 17 17 17
24 24 24 22 23 23 20 19 20 21 21 21 21 21 21 21 21 21 21 21 21 21 21 21 21 21 21 21 20 20 21 20 20 20 20 20 19 19 19 19 19 19 19 19 19 18 18 18 18 18 17 17 17 17 16 16 16 16 16 16 16 17 17
24 24 24 23 23 22 19 19 21 21 21 21 21 21 21 21 21 21 21 21 21 21 21 21 21 21 21 21 21 21 21 21 21 20 20 20 19 19 19 19 19 19 19 19 19 19 18 18 18 18 17 17 17 17 17 16 16 16 16 16 16 17 17
24 25 24 23 22 21 20 20 22 22 21 22 21 21 21 22 21 21 21 21 21 21 21 21 21 21 21 21 21 21 21 21 21 21 20 20 20 19 19 19 19 20 19 19 20 19 19 19 19 18 18 18 17 17 17 16 15 16 16 16 16 17 17
24 24 23 21 21 22 22 22 22 22 22 22 22 22 22 22 21 21 21 21 21 21 21 21 21 21 21 21 21 21 21 21 21 20 20 20 20 19 19 19 20 20 20 20 20 20 19 19 19 18 18 18 17 17 17 16 15 16 16 16 16 16 16
22 21 21 21 22 23 23 23 22 22 22 22 22 22 22 21 21 21 21 21 21 21 21 21 21 21 21 21 21 21 21 21 20 20 20 20 19 19 20 20 20 20 20 20 20 20 19 19 19 18 18 18 18 17 17 16 16 15 16 16 16 16 16
21 21 22 23 23 22 22 22 22 22 22 22 22 22 22 21 21 21 21 21 21 21 21 21 21 21 21 21 21 21 21 21 21 20 20 20 20 20 20 20 20 20 21 20 20 20 20 19 19 19 18 18 18 17 17 16 16 15 16 16 16 16 16
22 21 21 22 23 23 23 22 22 22 22 22 22 22 21 21 21 20 20 21 20 20 21 21 21 21 21 21 21 21 21 21 21 20 20 21 20 20 20 20 20 20 21 21 20 20 20 19 19 19 18 18 18 17 17 17 16 15 15 15 16 16 16
23 22 22 22 23 23 22 22 22 22 22 22 22 22 21 21 21 20 21 21 20 20 21 21 21 21 21 21 21 21 21 21 21 21 21 21 20 20 20 20 20 20 20 20 20 20 20 20 19 19 18 18 18 18 17 17 17 16 15 15 15 16 16
22 21 21 22 22 22 22 22 22 22 22 22 22 22 22 21 21 21 21 21 20 21 21 21 21 21 21 21 21 21 21 21 21 21 20 20 20 20 20 20 20 20 20 20 20 20 20 19 19 19 19 18 18 18 17 17 17 17 16 16 15 15 16
21 20 21 21 22 22 22 22 21 21 22 22 22 22 22 21 21 21 21 21 21 21 21 21 21 21 21 21 21 21 21 21 21 20 20 20 20 20 20 20 20 20 20 20 20 20 20 19 19 19 19 19 18 18 18 17 17 17 17 16 16 16 16
20 20 20 21 21 22 22 21 21 21 21 22 22 22 22 21 21 21 21 21 22 22 21 21 21 21 21 21 21 21 21 21 21 20 20 20 20 20 20 20 20 20 20 20 20 20 20 19 19 19 19 19 18 18 18 18 18 17 17 17 17 16 16
19 20 21 21 21 21 21 21 21 21 21 22 22 22 22 21 21 21 21 22 22 21 21 21 21 21 21 21 21 21 21 20 20 20 20 20 20 20 20 20 20 20 20 20 19 19 20 19 19 19 19 19 19 18 18 18 18 18 18 17 17 17 17
20 21 21 21 21 21 21 21 21 20 21 21 21 21 21 21 21 21 21 21 21 21 21 21 21 21 21 21 21 21 20 20 20 20 20 20 20 20 20 20 20 20 20 20 19 19 19 19 19 19 19 19 19 18 18 18 18 18 18 18 18 17 17
19 20 20 20 21 21 20 20 19 20 20 21 21 21 21 21 21 21 21 21 21 21 21 21 21 21 21 21 21 20 20 20 20 20 20 20 20 20 20 20 20 19 19 19 19 19 19 19 19 19 19 19 19 19 18 18 18 18 18 18 18 18 18
18 20 20 21 21 20 19 19 19 20 20 21 21 21 21 21 21 21 21 20 21 21 22 21 21 21 21 21 21 20 20 20 20 20 20 20 20 20 20 20 20 20 19 19 19 19 19 18 19 19 19 19 19 19 19 18 18 19 18 18 18 18 18
18 20 20 20 20 19 19 20 20 20 21 21 21 21 21 21 21 21 20 20 20 21 21 21 21 21 21 21 20 20 20 20 20 20 20 20 20 20 20 20 19 19 20 19 19 19 19 18 18 18 18 19 19 19 19 19 19 19 19 18 18 18 18
18 18 19 20 20 19 19 20 20 20 20 21 21 21 20 20 21 21 20 20 20 21 21 21 21 21 21 21 21 20 20 20 19 20 20 20 20 20 20 20 19 19 19 19 19 19 19 19 18 18 18 18 19 19 19 19 19 19 18 18 18 18 18
17 17 18 19 18 18 19 19 19 20 20 21 21 21 20 20 20 21 20 20 20 20 20 20 20 20 20 20 20 20 20 20 19 20 20 20 20 20 19 19 19 19 19 19 19 19 19 19 19 19 18 18 18 18 19 19 19 19 19 18 18 18 18
18 18 19 18 18 18 18 18 19 19 20 20 21 20 20 20 20 20 20 20 20 20 20 20 20 20 20 20 20 20 20 20 20 19 19 20 20 19 19 19 19 18 19 19 19 19 18 18 19 19 19 18 18 18 18 18 18 18 18 19 18 18 18
Height
808 808 809 809 809 809 808 808 807 808 808 808 808 808 808 808 808 808 808 808 807 807 806 805 804 803 802 801 799 796 794 793 792 791 789 787 785 784 784 784 784 783 783 783 785 785 785 785 784 784 783 783 783 782 782 782 782 781 780 781 783 784 784
808 809 809 808 808 808 807 806 806 807 807 807 807 807 807 807 806 807 807 807 807 806 805 804 803 802 801 800 798 796 794 792 791 789 788 786 785 783 783 782 781 781 782 782 782 782 782 782 781 781 780 779 779 777 776 777 778 779 778 778 779 780 781
809 809 808 807 806 805 805 804 805 805 806 806 806 806 806 805 805 805 805 806 806 805 805 803 802 800 799 798 797 795 794 792 790 789 787 785 784 783 782 781 781 781 781 781 781 780 779 779 778 778 777 776 776 774 772 772 773 774 775 776 776 777 777
808 806 806 805 804 803 803 802 803 804 804 805 805 805 805 804 804 804 804 805 805 804 804 803 801 799 798 797 796 795 793 792 791 789 787 786 784 783 782 781 781 780 780 779 779 777 777 776 775 774 774 773 774 772 770 768 768 769 770 771 772 772 772
806 805 805 804 801 801 800 800 801 802 803 804 804 804 804 803 803 803 803 803 803 803 802 802 800 798 797 796 795 794 792 791 790 788 787 785 784 783 782 781 780 779 778 776 775 774 773 772 771 771 771 771 772 770 767 765 764 764 765 766 767 767 767
804 804 803 801 800 799 798 799 800 800 802 803 803 803 802 802 802 801 801 801 801 801 800 800 799 797 796 795 793 792 791 790 788 786 785 784 782 781 780 779 778 777 775 774 772 771 769 768 767 767 767 767 768 766 763 761 760 760 761 762 762 762 763
802 802 801 799 798 798 798 799 799 799 800 801 801 801 800 800 801 800 800 800 799 799 799 798 797 796 795 793 792 791 789 788 786 784 783 782 781 779 777 776 775 774 773 771 770 768 767 765 765 764 764 763 762 760 758 755 755 756 757 758 758 758 759
799 799 798 798 797 797 798 798 799 799 799 800 799 800 800 799 799 799 799 798 798 798 797 796 795 794 793 792 791 789 787 786 785 783 781 780 779 777 776 775 774 772 771 769 769 768 766 765 764 763 762 761 759 756 753 750 749 751 752 753 753 753 754
797 797 796 796 795 796 797 797 798 798 797 798 798 799 799 799 798 798 798 798 797 797 796 795 795 793 792 791 789 788 786 785 783 782 780 779 777 776 774 773 772 771 769 768 767 766 765 764 763 761 760 758 756 753 750 748 745 745 746 747 748 749 749
796 796 794 794 794 794 795 796 796 797 796 797 798 798 798 797 797 798 797 797 797 796 796 795 794 793 791 790 788 787 785 783 782 781 779 777 776 774 773 772 770 769 768 766 765 764 763 762 761 759 757 755 753 750 747 745 743 742 742 742 743 743 744
794 794 793 793 794 794 795 795 795 795 795 796 796 797 796 796 797 797 796 797 796 795 795 794 793 792 791 789 788 786 784 783 781 779 778 776 775 773 772 771 769 767 766 765 763 762 761 760 758 756 754 752 749 747 744 742 741 741 739 739 739 739 740
793 792 792 793 793 793 793 794 794 793 794 795 795 795 796 795 796 796 795 795 795 794 794 793 792 791 790 789 787 786 784 782 780 779 777 776 774 772 771 770 769 767 765 763 762 761 760 758 756 754 752 749 746 743 741 739 738 737 737 737 737 736 736
791 791 792 792 791 793 793 793 793 792 793 794 794 795 795 794 795 794 794 794 793 793 792 792 791 789 789 788 786 785 784 782 780 778 776 775 773 772 770 769 768 765 764 762 761 760 759 757 755 752 750 747 744 741 738 736 735 734 734 734 734 733 732
790 790 791 790 791 792 793 793 792 791 792 793 793 794 793 794 794 793 793 793 792 792 791 790 789 788 787 786 785 784 782 781 780 778 776 774 773 771 770 768 767 765 763 761 760 759 758 755 753 750 747 745 742 739 736 734 733 732 731 731 730 730 728
789 790 790 790 792 792 792 792 791 791 791 791 792 792 792 793 793 792 792 792 791 791 790 789 788 787 786 784 783 782 781 780 778 777 775 774 772 770 769 767 766 763 761 760 759 758 756 755 752 749 745 743 740 738 736 733 731 730 729 729 727 726 724
788 789 789 790 791 791 790 790 789 789 789 789 790 791 791 791 791 791 791 790 790 789 788 788 787 785 784 783 782 781 779 778 777 776 775 773 771 769 768 766 765 762 760 759 758 757 755 754 751 748 745 741 739 737 734 733 731 729 728 726 724 722 720
787 788 789 790 790 789 788 788 787 787 787 788 789 789 790 790 790 790 790 789 789 788 787 787 786 784 783 782 780 779 778 777 776 775 774 772 770 768 767 765 763 761 759 758 756 755 754 752 750 747 744 741 738 735 733 732 731 729 726 723 721 718 716
786 787 787 788 787 787 786 786 786 786 786 786 787 788 788 789 789 789 789 788 787 787 786 786 785 784 782 780 780 778 776 776 774 773 772 770 769 767 766 765 763 760 759 756 755 754 752 750 749 746 743 740 737 734 732 731 729 727 724 721 717 714 711
783 784 784 784 784 783 784 784 784 784 784 785 786 786 787 787 787 787 787 786 786 785 785 784 783 783 781 779 779 777 775 774 773 772 771 769 767 766 764 763 762 759 757 755 753 752 750 748 747 745 742 739 736 734 732 730 728 725 721 717 713 710 706
780 781 780 781 781 780 781 782 782 782 783 783 784 784 785 785 785 785 785 785 784 783 783 783 782 782 780 779 778 776 774 773 771 770 769 767 766 764 763 762 760 758 756 753 751 750 748 747 745 743 741 739 736 734 732 730 727 723 719 715 710 706 703
777 777 778 778 778 778 779 779 780 781 781 782 782 782 783 783 783 783 783 783 783 782 782 781 781 780 779 778 776 775 773 771 770 769 768 766 764 762 761 760 758 756 754 752 750 749 747 746 744 743 741 739 737 735 733 731 728 723 719 714 708 704 701
773 773 773 773 774 775 776 776 777 778 779 780 780 780 781 781 781 781 781 781 781 781 780 780 780 779 778 777 776 774 772 770 769 768 766 765 763 761 760 759 757 755 753 750 748 747 746 745 744 742 741 739 737 735 733 731 728 723 719 713 707 702 699
768 769 769 769 770 772 772 774 775 775 776 777 778 778 779 779 779 779 779 779 779 779 779 779 778 778 777 776 775 773 771 769 768 766 765 764 762 760 759 757 756 754 752 749 747 746 745 744 743 742 740 739 737 735 733 731 728 724 720 714 708 703 700
765 765 766 767 769 770 771 772 772 773 774 775 776 777 777 777 778 777 777 777 776 777 777 777 777 776 776 775 774 772 770 769 767 765 763 762 761 759 758 756 755 753 751 749 747 745 744 743 743 742 740 739 737 735 733 732 729 726 722 717 712 707 704
764 765 766 766 768 768 769 770 770 771 772 773 774 775 775 776 776 775 775 775 774 775 775 775 775 775 774 773 772 771 770 768 766 764 762 761 760 758 757 755 754 752 751 749 747 745 743 743 743 742 741 739 737 735 734 733 731 728 725 720 716 712 708
764 765 765 766 767 767 768 769 769 769 770 771 772 772 773 774 774 774 774 773 773 773 772 773 773 773 772 772 770 769 768 766 765 763 761 760 759 758 757 755 753 752 750 749 748 745 743 742 742 742 741 740 738 736 735 733 732 730 727 724 721 717 712
762 763 764 765 766 766 767 767 767 767 768 769 770 770 771 772 772 772 772 771 771 771 770 771 771 771 771 770 769 768 767 765 764 762 760 760 759 757 756 755 753 752 750 749 748 746 744 743 742 742 740 739 738 737 735 734 733 731 729 727 724 720 717
761 762 763 764 764 765 765 765 765 766 766 767 768 769 769 770 770 770 770 769 769 768 769 769 770 769 769 769 768 767 765 764 763 761 760 759 758 757 756 754 753 752 750 749 748 746 745 744 742 741 740 738 738 736 735 734 733 731 730 729 727 725 722
760 761 762 762 763 764 763 764 764 764 765 765 766 767 767 768 768 768 768 768 767 767 767 767 768 768 768 767 767 766 764 763 762 760 759 759 758 757 756 755 753 752 750 749 748 747 746 744 743 741 739 737 737 736 735 734 733 731 730 729 728 727 725
758 759 760 760 762 761 762 763 763 763 764 764 764 765 766 767 767 766 766 766 765 765 765 765 766 766 766 766 765 765 764 762 761 760 759 758 757 757 756 755 754 752 751 750 748 747 745 744 743 742 740 738 736 735 734 733 732 731 730 729 728 727 726
756 757 758 758 759 760 760 761 761 762 763 763 763 764 765 765 765 765 765 764 764 764 763 763 763 764 764 764 764 763 762 761 760 760 758 757 757 756 755 754 753 752 751 749 748 746 745 743 742 741 740 738 736 735 734 733 732 731 730 729 729 728 727
755 756 756 757 758 759 759 760 761 761 762 762 762 763 763 763 764 763 763 763 763 762 761 760 760 761 762 763 763 762 761 760 760 759 758 757 756 755 754 753 752 751 750 748 747 746 744 743 742 741 739 738 736 735 734 733 732 732 730 729 729 728 727
755 755 756 757 757 758 759 759 760 760 760 760 760 761 761 762 762 762 762 762 762 761 759 758 759 759 761 762 762 761 760 759 759 759 758 756 755 754 753 753 752 751 750 748 746 745 744 742 741 740 739 737 736 735 734 733 732 732 731 730 729 728 727
754 754 755 755 756 757 758 758 758 759 759 759 759 760 760 760 760 761 761 762 761 760 758 757 758 759 760 760 761 760 759 759 759 758 757 756 755 754 753 752 751 750 749 748 746 745 743 742 740 739 738 737 736 735 733 733 732 731 731 730 729 728 727
753 754 754 754 755 756 756 756 757 757 758 758 758 759 759 759 759 760 760 760 760 759 757 757 757 758 759 759 759 759 758 758 758 757 756 755 754 753 752 751 750 749 748 747 746 745 743 741 740 739 738 737 736 735 733 732 732 731 731 730 729 729 728
751 752 752 753 754 754 754 755 755 756 757 757 757 758 758 758 758 758 758 759 759 758 757 757 757 757 758 758 758 758 757 757 757 756 755 754 753 752 751 750 750 749 747 746 745 744 743 742 740 739 738 737 736 735 733 732 732 731 731 730 730 729 728
750 750 751 752 752 753 753 754 756 757 757 756 756 757 757 757 757 757 757 758 758 758 757 757 756 757 757 756 757 756 756 756 756 755 754 753 752 751 750 749 748 748 747 746 745 743 743 741 739 738 737 736 735 734 734 733 732 731 731 730 730 730 729
749 749 751 751 751 752 753 754 755 756 756 756 756 756 756 756 756 756 756 757 757 756 756 756 755 755 755 755 755 755 754 754 754 753 752 751 751 750 749 748 747 746 745 744 744 743 742 740 739 738 736 735 735 734 734 733 732 732 731 730 730 730 729
Wind_Speed
6 5 5 5 5 5 6 7 6 6 9 10 8 6 6 6 5 4 5 8 10 13 14 15 16 15 15 17 18 19 18 15 12 11 11 9 9 12 13 14 12 13 16 19 17 16 18 20 20 21 24 25 28 31 30 28 26 24 24 24 25 29 31
6 6 5 5 5 5 6 8 6 7 10 9 6 5 5 6 5 5 5 7 8 11 13 15 16 15 15 16 17 18 16 13 12 12 13 10 8 8 9 10 11 13 16 20 21 22 24 25 24 26 29 29 32 35 33 31 27 24 23 22 21 23 27
6 6 6 6 6 6 7 9 7 8 9 7 4 4 5 6 5 5 5 6 8 9 12 14 16 15 15 15 16 17 16 14 14 14 15 13 11 11 12 13 15 17 19 21 22 23 24 25 27 28 29 30 32 34 33 33 31 29 28 27 26 26 26
7 6 7 6 6 7 7 8 8 9 8 5 3 3 5 6 4 4 4 6 7 9 12 13 13 13 14 15 16 16 15 15 14 14 15 15 13 13 14 15 16 16 18 18 19 20 21 23 25 26 27 29 30 30 31 31 31 30 32 32 32 31 30
7 6 6 6 6 6 5 7 11 11 8 4 4 5 5 4 3 3 4 6 7 9 11 10 10 13 16 16 15 15 15 14 14 15 14 13 13 13 14 15 15 15 16 16 17 18 20 21 23 24 26 27 28 30 32 33 32 32 33 33 35 35 34
7 7 6 6 6 4 4 9 13 12 8 6 6 5 4 2 2 2 5 7 8 10 11 9 9 14 17 15 14 14 15 15 15 16 15 13 13 14 15 15 15 15 16 16 18 20 21 22 23 25 26 26 28 31 33 35 35 35 34 32 33 34 33
7 7 6 5 5 5 6 10 13 12 10 8 6 4 3 1 1 3 5 7 8 11 11 9 10 14 15 15 15 16 16 16 17 17 16 14 13 15 15 14 14 15 16 17 19 20 20 21 22 24 26 27 29 31 33 35 36 35 34 32 33 33 32
7 7 6 5 5 5 6 10 13 13 10 8 6 4 3 1 0 2 5 6 8 10 10 9 11 14 15 15 16 17 17 16 16 17 17 15 14 14 14 13 13 13 15 17 17 17 17 18 19 21 23 25 27 30 31 33 35 36 34 31 31 32 31
7 7 6 6 5 5 8 11 13 11 9 7 5 4 2 1 1 2 4 5 7 10 9 8 10 13 14 15 16 17 16 16 15 15 15 14 13 14 14 15 14 13 14 15 15 14 15 17 18 20 21 22 25 28 29 31 34 35 33 30 29 29 29
7 6 6 6 5 5 8 10 11 9 7 6 5 3 2 2 1 2 3 4 7 9 8 7 10 12 13 15 16 15 16 16 16 15 14 13 13 15 17 17 16 14 14 13 13 15 16 18 19 20 22 23 24 25 26 28 30 31 31 30 29 28 27
7 6 6 5 5 5 6 7 8 6 3 4 5 3 2 2 1 2 3 5 8 9 7 6 9 11 13 15 16 15 16 16 17 16 14 12 12 14 18 19 17 14 13 12 14 16 18 19 20 21 23 23 23 24 24 25 26 28 29 28 25 25 25
6 6 6 7 6 5 5 5 4 3 4 4 4 2 3 3 2 3 4 6 7 8 6 5 8 11 13 15 16 15 15 16 17 18 16 14 13 14 17 19 18 15 13 13 15 18 20 20 21 22 23 22 22 24 23 22 22 23 24 23 22 23 25
6 6 6 6 5 4 4 3 3 5 6 4 4 4 4 3 3 3 5 6 7 8 6 5 8 12 13 14 16 15 14 14 16 18 16 14 14 14 15 18 19 18 16 15 16 19 21 21 22 22 22 21 20 20 19 18 17 19 21 22 23 25 27
6 5 4 5 5 4 5 4 4 6 6 6 6 5 4 3 3 4 5 5 6 7 6 5 9 12 12 13 15 15 13 13 14 15 14 13 13 14 15 17 18 19 18 17 18 20 22 22 22 22 22 21 18 16 16 16 17 21 24 26 26 25 25
5 5 6 5 5 5 6 5 5 6 7 7 5 4 3 3 2 3 4 5 6 6 5 7 10 11 11 13 14 13 13 12 13 13 12 13 15 16 16 18 19 19 19 19 19 21 20 20 21 22 22 21 18 16 15 15 16 17 18 20 23 24 25
6 6 6 6 7 7 7 6 7 8 9 6 4 3 3 2 1 1 4 6 5 4 6 8 10 10 11 13 13 12 12 12 12 13 13 14 17 18 17 19 20 20 20 21 21 21 20 20 21 21 21 21 19 18 16 14 15 15 15 19 22 22 24
7 7 7 7 8 8 7 7 7 9 9 7 5 4 2 1 1 1 4 6 5 5 6 8 10 11 12 13 12 10 11 12 12 13 15 16 18 18 18 20 21 19 19 21 22 22 21 21 21 20 19 19 20 19 16 14 17 20 20 23 23 20 20
7 8 9 9 9 8 7 6 6 8 9 8 7 5 2 2 2 3 5 6 7 6 7 8 9 11 13 12 10 9 11 12 13 14 16 16 17 18 18 20 20 20 20 21 21 22 22 21 20 18 18 19 21 20 17 17 22 25 24 24 24 22 21
8 9 10 9 9 8 7 7 9 11 10 9 7 5 4 4 4 5 6 6 7 6 6 8 9 10 11 10 9 9 10 12 14 15 16 16 17 18 19 19 20 22 22 22 21 21 21 20 19 17 16 18 21 21 19 21 26 26 26 28 26 22 21
9 9 9 8 8 7 7 9 12 12 10 9 8 6 5 5 5 6 7 7 6 6 7 7 8 9 10 9 8 9 11 13 15 16 17 17 17 18 19 19 21 22 22 22 22 21 19 19 18 16 15 17 18 20 20 22 26 27 27 30 28 23 20
8 8 8 7 7 7 9 12 13 13 11 10 9 7 6 7 7 7 8 8 8 8 8 8 8 10 11 10 11 12 12 14 16 17 19 19 18 18 19 20 21 23 22 21 21 19 16 16 16 14 14 15 16 18 20 21 26 29 28 30 29 22 18
8 8 8 9 10 10 13 15 15 14 13 11 10 9 9 9 9 8 9 10 10 10 9 9 10 12 12 11 13 14 15 15 16 19 21 21 19 19 20 20 20 21 21 20 20 17 12 12 13 12 13 14 14 17 20 21 26 29 29 31 29 19 15
9 9 10 12 14 15 16 17 16 15 13 11 11 11 11 11 10 10 10 10 11 12 11 11 11 11 11 12 13 15 16 17 19 21 22 22 20 20 20 19 18 18 20 19 19 16 11 9 10 11 11 13 14 16 19 21 25 28 28 31 30 21 15
9 12 13 15 15 15 16 17 16 14 12 11 11 12 11 10 11 12 12 11 11 12 12 12 11 11 12 12 13 15 16 19 21 22 22 20 19 18 18 17 16 17 18 18 19 17 12 8 9 10 10 12 14 14 17 20 23 25 26 29 32 28 22
7 12 15 17 16 16 17 18 15 13 11 10 10 11 12 12 12 13 14 13 11 11 12 12 11 11 11 11 12 13 15 18 21 20 18 16 16 15 15 16 16 16 18 19 20 19 12 8 8 9 10 12 13 12 14 18 20 22 24 26 30 31 27
9 12 14 14 15 16 17 17 14 12 12 12 11 11 12 12 13 14 14 12 10 10 12 12 12 12 11 10 11 13 14 16 17 15 13 13 14 14 14 15 17 17 19 21 19 16 13 8 8 9 10 10 11 11 12 15 18 19 21 23 25 28 29
14 15 15 15 16 16 17 15 13 14 14 14 13 11 11 12 13 13 13 11 11 12 12 12 12 13 12 11 11 12 12 12 12 12 10 11 12 13 13 15 18 19 20 20 17 14 14 10 6 8 11 10 9 11 10 11 14 16 18 20 22 24 26
11 11 13 15 16 16 15 13 12 14 15 15 13 12 11 12 13 14 13 13 13 13 13 12 13 12 10 10 10 11 10 9 11 12 11 11 12 13 15 16 18 20 19 16 14 13 13 12 9 7 9 9 7 9 10 9 11 13 15 16 18 19 20
9 10 13 15 16 16 15 13 13 14 16 15 13 12 12 14 15 14 13 13 12 12 12 13 13 12 11 11 11 9 8 9 10 12 12 12 12 13 15 15 16 18 15 11 11 12 12 11 11 11 11 9 6 6 9 9 9 11 12 13 15 15 16
11 14 16 17 18 17 16 15 16 16 16 15 13 13 14 14 14 14 13 12 11 10 10 12 13 12 11 11 10 8 8 10 10 11 11 10 9 10 12 13 14 16 14 10 10 11 11 11 11 11 12 10 5 4 6 8 8 9 10 11 13 14 14
15 18 19 19 20 19 17 17 18 17 15 15 14 14 14 14 14 15 13 12 12 12 12 13 13 12 10 9 8 8 10 10 7 7 8 8 8 9 11 12 13 14 14 14 12 10 10 11 10 9 9 9 7 5 5 5 6 7 9 10 12 13 13
16 18 19 18 18 18 18 18 18 17 16 15 15 14 14 14 14 15 15 14 13 14 14 12 10 9 9 8 8 9 8 5 2 3 6 8 8 10 11 12 14 14 16 17 15 12 12 12 11 8 8 8 8 7 6 5 6 6 7 8 10 11 12
12 14 15 15 16 18 18 17 17 17 17 16 14 13 13 13 13 14 15 13 11 13 15 12 7 8 8 7 6 6 3 2 1 2 6 8 9 10 12 13 13 14 16 18 18 16 16 15 13 10 8 8 10 8 7 6 7 8 7 7 7 9 10
11 13 13 15 16 18 19 18 18 17 16 14 13 12 11 12 11 12 12 9 8 11 11 6 6 9 9 5 4 2 2 1 2 3 6 8 9 12 13 12 12 14 15 17 19 19 18 17 16 13 10 9 10 8 7 7 7 7 8 7 7 8 8
12 13 14 16 18 20 21 21 20 17 14 14 14 12 10 10 10 11 8 4 5 7 3 3 7 10 9 5 4 2 1 1 2 3 6 9 11 12 13 11 11 13 14 16 18 20 20 19 18 15 12 11 10 8 8 9 8 7 7 7 7 8 8
13 14 15 17 18 20 21 21 18 16 14 16 15 12 10 10 10 8 6 4 4 4 4 5 6 9 10 8 7 4 2 2 2 4 7 10 11 12 13 12 12 13 13 14 17 19 19 19 19 16 14 13 12 11 10 10 9 8 7 6 7 7 7
15 15 15 17 18 18 19 18 16 15 16 17 16 13 12 12 9 8 8 7 5 5 6 5 5 7 8 8 7 5 3 4 4 5 8 10 11 12 12 14 17 17 14 13 15 17 17 18 19 19 16 13 14 14 12 11 10 9 8 8 7 7 7
15 15 15 17 17 17 17 16 15 16 18 18 16 14 13 12 10 9 10 10 9 7 7 6 6 6 5 5 5 4 5 6 7 8 9 11 12 11 11 14 17 18 17 15 14 15 16 16 18 20 19 15 11 13 14 13 11 10 10 10 10 8 8
Wind_Direction
134 124 130 140 147 160 172 173 161 135 126 120 112 96 87 93 88 63 31 12 353 342 341 344 348 346 344 346 345 342 334 322 316 309 301 301 312 310 293 284 290 294 290 284 279 279 281 280 275 275 277 274 273 274 273 271 266 262 264 259 256 256 254
135 136 152 160 165 182 189 187 174 138 127 123 112 96 99 109 98 71 43 15 354 346 343 342 342 339 339 345 349 351 344 327 323 320 308 303 309 315 307 292 284 282 286 287 286 285 285 283 279 281 281 274 271 272 271 269 266 264 263 259 258 257 254
145 153 166 172 181 189 194 198 182 142 132 129 117 114 125 119 96 73 52 12 356 353 345 341 342 340 341 344 346 351 350 338 335 333 328 324 315 308 308 302 293 289 286 286 289 290 288 285 283 283 282 276 271 270 269 266 265 265 264 261 260 257 254
159 169 171 179 193 190 190 192 170 143 137 135 127 140 137 114 89 76 49 5 356 356 348 347 353 355 351 346 344 346 348 345 344 342 338 334 328 321 315 310 304 299 295 293 296 297 294 293 292 289 283 278 273 269 269 269 267 266 264 262 261 257 254
170 175 175 183 197 198 187 167 155 148 146 151 156 148 128 101 72 57 21 355 348 348 350 355 0 358 350 346 348 349 350 350 347 345 340 332 328 323 317 315 312 308 306 306 306 305 302 300 298 293 286 279 273 269 269 271 269 266 264 263 261 256 252
175 179 180 187 187 178 158 151 154 157 161 167 163 146 121 89 46 18 360 347 339 342 351 0 1 355 348 346 351 352 352 351 347 347 344 337 331 325 322 321 318 317 316 315 316 315 311 307 303 299 294 286 278 272 271 271 268 264 262 259 256 251 247
175 179 182 189 180 160 152 157 163 168 169 166 159 148 127 103 33 1 349 341 337 341 349 358 1 356 348 346 348 348 349 349 350 352 349 345 338 330 326 323 321 322 321 319 321 320 315 312 309 306 301 293 284 276 273 272 269 265 260 256 253 250 248
172 175 182 188 178 165 164 169 174 173 167 164 161 153 142 137 337 345 346 339 335 339 345 353 359 357 350 346 346 346 346 347 351 355 353 350 347 341 334 328 325 324 322 321 321 318 316 315 314 313 308 299 290 281 272 268 267 265 260 255 254 254 252
176 181 186 185 176 173 176 178 177 171 165 165 160 148 151 187 242 347 351 341 336 339 341 346 355 358 353 347 347 347 345 343 347 353 353 351 351 351 347 340 334 329 324 320 318 317 319 318 317 317 314 307 300 292 280 269 264 263 259 253 253 255 254
183 184 184 187 184 178 178 179 177 173 168 161 152 147 171 198 211 12 4 347 342 340 333 338 355 1 357 350 347 347 347 346 347 348 347 346 349 350 347 342 338 332 324 317 317 321 323 322 322 322 320 315 307 301 290 274 267 266 261 255 252 252 253
181 179 182 194 189 175 176 181 183 179 160 147 152 154 160 160 114 34 16 351 343 338 326 335 356 359 354 350 347 346 348 350 348 345 341 337 341 342 339 337 335 328 319 312 314 321 324 325 326 327 326 321 314 306 291 271 263 263 262 258 253 251 251
177 180 187 193 186 178 184 192 182 142 108 137 162 148 132 122 80 33 2 344 342 340 329 333 352 355 351 347 347 345 344 345 345 343 337 329 330 333 331 332 333 327 316 308 311 317 322 326 328 329 328 326 323 318 303 278 260 255 256 257 258 259 260
180 187 194 192 178 171 181 177 141 115 114 145 161 140 122 95 48 13 352 342 341 344 339 329 341 347 344 342 345 346 341 339 340 341 337 331 329 331 330 331 334 332 323 312 309 313 316 323 329 334 335 332 329 330 324 304 278 257 251 257 263 266 267
176 169 163 162 155 164 173 166 149 136 141 154 151 136 114 71 30 6 354 342 338 342 341 333 336 338 337 337 342 344 340 336 337 340 342 339 335 330 328 328 331 331 325 315 311 312 314 322 331 337 340 339 335 334 333 320 295 269 255 259 266 266 267
155 132 129 142 158 174 176 176 177 166 162 160 147 128 106 71 38 12 351 338 334 332 329 331 334 333 330 335 340 341 338 334 332 338 345 348 343 334 325 323 325 326 324 321 317 314 314 323 332 337 340 342 343 341 337 329 312 289 274 278 276 266 266
148 140 147 160 174 188 189 189 185 171 163 159 148 131 107 75 60 12 349 344 331 312 312 321 328 330 326 330 338 340 336 331 325 329 340 346 346 342 333 327 324 323 324 324 321 317 317 323 329 335 341 343 344 345 343 339 332 327 329 324 303 274 266
156 160 175 185 191 201 199 187 177 166 159 155 156 147 122 118 186 301 337 339 322 306 311 311 316 326 323 323 336 341 337 332 323 323 331 337 340 343 341 334 329 326 324 324 322 319 320 321 324 332 342 345 345 344 342 347 351 350 348 339 325 303 282
172 177 187 195 200 202 191 177 168 162 158 161 168 168 165 188 215 282 311 323 320 309 308 306 311 323 321 319 329 339 340 336 327 324 329 332 336 339 338 334 331 329 325 323 322 320 319 320 322 330 341 346 349 349 349 358 0 356 350 341 333 324 307
185 188 191 197 201 196 182 171 163 162 167 177 186 191 193 201 237 276 284 303 315 305 302 309 317 325 322 315 319 335 346 342 334 332 332 332 335 337 336 333 331 330 328 324 321 319 318 320 322 328 341 350 354 357 0 2 358 354 352 346 338 329 319
190 193 196 199 198 188 175 168 166 170 180 191 195 198 205 221 249 269 268 274 288 293 300 309 319 326 322 315 321 336 344 342 338 337 335 334 335 335 336 334 330 330 329 326 323 319 315 318 321 327 341 351 357 2 4 2 359 358 358 354 348 337 324
193 188 192 197 191 181 172 168 170 177 186 194 199 203 216 232 245 257 259 257 264 277 287 294 307 315 312 315 328 337 340 340 338 335 333 333 333 333 335 333 330 332 334 332 330 324 313 314 321 327 341 352 358 3 4 4 4 5 3 359 354 345 330
188 182 187 186 177 176 177 177 180 185 188 197 207 215 229 240 242 245 252 253 257 265 273 283 299 308 309 314 326 332 334 333 331 329 330 330 328 328 333 336 335 339 343 342 339 332 314 313 325 332 344 354 359 3 4 5 8 10 10 6 3 355 341
183 180 182 179 176 178 182 184 186 187 191 203 216 227 237 241 238 236 242 252 256 259 265 275 288 299 305 310 320 327 329 326 325 326 327 327 326 326 332 338 339 344 349 351 348 337 314 305 327 337 349 358 0 2 4 6 10 14 16 15 16 17 13
177 172 173 175 177 178 182 186 186 187 195 209 224 236 240 238 234 233 237 248 255 257 263 269 280 296 303 306 313 323 328 327 326 328 330 330 330 331 336 341 342 344 351 356 354 344 321 295 317 338 351 2 4 4 3 6 13 18 19 21 26 26 24
168 172 176 178 180 182 183 185 185 186 195 211 225 233 233 230 231 233 239 248 256 261 263 263 274 292 299 300 307 318 326 328 328 333 338 340 339 338 340 344 345 346 352 355 354 353 338 298 299 332 350 0 7 8 5 6 13 19 21 23 29 30 27
171 178 182 182 186 188 184 181 181 183 192 209 221 223 222 222 225 230 238 247 252 255 259 265 275 284 288 296 307 316 321 326 333 341 345 345 344 341 342 345 346 346 349 350 353 5 7 330 297 315 336 352 7 8 2 5 11 17 22 23 25 30 34
182 183 182 183 185 183 178 180 186 191 200 213 222 222 221 222 225 232 240 244 245 249 259 272 278 278 285 299 308 312 318 329 344 348 343 342 345 344 342 344 344 341 341 342 349 10 24 16 336 315 321 334 1 6 357 356 4 12 20 24 24 29 37
175 170 173 177 177 175 174 179 188 198 208 216 218 218 220 224 231 241 246 245 250 259 268 276 276 272 283 300 302 306 321 338 349 351 347 343 344 343 342 343 345 345 342 340 347 1 15 27 29 5 343 337 350 5 2 353 354 3 13 22 27 30 36
159 157 164 168 173 178 180 181 189 201 209 210 208 211 218 225 234 243 245 249 265 279 274 270 272 270 278 292 296 307 331 339 340 347 348 343 340 345 350 350 353 357 356 349 348 349 357 16 27 25 18 7 349 356 6 0 354 358 7 17 24 26 30
160 164 168 173 181 187 187 187 192 201 207 207 208 215 223 231 237 242 247 261 287 300 285 276 276 272 274 286 295 314 338 333 330 342 351 353 356 2 6 4 2 4 4 354 342 341 350 5 13 14 17 13 350 336 0 4 2 7 16 20 21 21 24
170 170 174 181 186 189 193 196 196 199 205 208 212 221 230 237 241 245 255 275 297 306 298 290 283 270 263 274 295 321 336 336 337 353 4 13 16 11 7 3 359 360 360 352 342 334 340 352 0 5 5 0 342 321 331 352 357 5 21 27 23 19 20
176 177 179 180 182 190 199 200 196 197 202 211 223 234 240 243 246 250 262 280 300 314 312 298 278 255 244 258 298 328 345 356 17 19 11 14 13 5 359 355 351 353 358 358 354 341 330 334 343 350 349 347 340 318 302 320 332 336 357 18 22 22 22
179 186 188 185 188 195 197 192 191 198 208 223 237 244 243 245 251 261 274 287 307 323 319 302 264 224 221 252 307 341 24 58 34 343 0 8 9 3 0 359 357 358 2 5 3 352 337 330 333 335 333 333 336 325 303 304 315 321 333 348 2 12 16
181 187 194 197 199 198 194 193 199 207 219 238 251 251 247 248 258 275 285 295 315 321 317 296 219 204 210 244 309 345 105 88 322 324 352 3 2 358 359 4 7 6 7 9 6 358 347 334 327 326 326 322 322 321 308 300 307 321 336 340 344 352 356
183 186 192 196 199 199 198 202 209 214 229 248 253 250 249 250 265 282 283 289 317 315 301 175 192 208 212 233 285 289 202 240 300 334 354 358 355 351 353 357 359 359 3 6 5 2 358 348 334 323 318 313 311 307 300 298 306 322 335 338 340 342 343
178 184 189 193 197 202 205 209 215 223 238 249 248 246 251 253 260 269 260 262 299 279 219 201 220 221 218 238 272 285 242 233 288 339 347 349 345 341 341 343 345 349 357 0 358 360 4 4 357 343 322 303 297 299 300 301 307 317 329 337 339 339 338
178 182 188 192 196 202 209 216 225 234 241 244 244 246 253 255 255 258 258 265 275 249 221 221 231 227 230 248 270 288 264 245 280 319 331 337 336 331 331 336 340 345 351 356 355 358 5 12 12 8 354 321 296 291 295 302 308 312 321 331 334 333 333
187 189 193 199 202 208 214 220 228 234 238 243 248 253 260 262 264 267 268 270 269 257 245 239 238 242 247 248 261 282 264 249 269 297 312 324 325 324 330 338 340 342 345 349 353 360 9 16 15 14 13 3 330 299 290 293 301 308 314 322 326 327 328